Location: Walton
(43.6794°N, 81.3017°W)
Time: 00:05:16
(UTC+00:00)

Cosmos 2180 Rocket - Pass Details

Date: 15 March 2026
Orbit: 952 x 1004 km, 82.9° (Epoch: 14 April)

Event Time Altitude Azimuth Distance (km) Brightness Sun altitude
Rises 10:58:19 0° 162° (SSE) 3,678 7.7 -7.9°
Reaches altitude 10° 11:00:59 10° 155° (SSE) 2,727 7.1 -7.4°
Maximum altitude 11:06:43 40° 89° (E) 1,410 6.2 -6.4°
Drops below altitude 10° 11:12:24 10° 22° (NNE) 2,711 7.2 -5.3°
Sets 11:15:02 0° 15° (NNE) 3,655 7.7 -4.9°
